Location: Brno
(49.2000°N, 16.6330°E)
Time: 20:12:15
(UTC+01:00)

Meteor 1-4 Rocket - Visible Passes

Search period start: 26 March 2015 00:00
Search period end: 05 April 2015 01:00
Orbit: 463 x 525 km, 81.2° (Epoch: 26 March)

Date Brightness Start Highest point End Pass type
(mag) Time Alt. Az. Time Alt. Az. Time Alt. Az.
26 Mar 3.5 04:29:36 10° S 04:33:02 49° E 04:36:31 10° NNE visible
27 Mar 4.2 04:08:11 10° SSE 04:11:24 34° E 04:14:43 10° NNE visible
28 Mar 4.8 03:46:53 10° SSE 03:49:48 25° E 03:52:49 10° NE visible
29 Mar 5.3 04:25:45 10° SE 04:28:12 18° E 04:30:45 10° NE visible
29 Mar 3.2 06:00:07 10° SW 06:03:24 34° WNW 06:06:45 10° N visible
30 Mar 5.5 04:04:55 10° ESE 04:06:35 13° E 04:08:26 10° ENE visible
30 Mar 2.8 05:38:10 10° SSW 05:41:38 48° WNW 05:45:10 10° N visible
31 Mar 2.4 05:16:29 11° SSW 05:19:52 71° WNW 05:23:31 10° N visible
01 Apr 2.6 04:55:24 16° S 04:58:08 80° E 05:01:48 10° NNE visible
02 Apr 3.2 04:34:15 21° SSE 04:36:24 55° E 04:40:00 10° NNE visible
03 Apr 3.8 04:13:01 23° SSE 04:14:41 38° E 04:18:07 10° NNE visible
03 Apr 4.2 05:47:46 10° WSW 05:50:20 18° WNW 05:52:52 10° NNW visible
04 Apr 4.4 03:51:43 22° SE 03:52:59 27° E 03:56:08 10° NNE visible
04 Apr 3.9 05:26:18 15° WSW 05:28:25 24° WNW 05:31:27 10° NNW visible
